Hors Challenge

Night Trail des Templiers à Nandrin (6.20 km)

samedi 10 mars 2018

Vous pouvez trouver Le classement original sur : www.otopservices.be  
 
NIGHT TRAIL DES TEMPLIERS - FRAINEUX
DISTANCE : 6.20 km
samedi 10 mars 2018
 
Place dos NOM Catégorie Pl/cat temps temps/km Vitesse
01:00:00              
1 1505 DAVID FRISON VETERAN 1 1 00:27:52 04:30 13.35
2 181 THIERRY PAQUES VÉTÉRAN 2 1 00:28:59 04:40 12.83
3 180 BENOIT PAQUES SENIOR H 1 00:29:02 04:41 12.81
4 1581 DAVID FOGUENNE SENIOR H 2 00:31:37 05:06 11.77
5 1578 JOSE FOGUENNE VÉTÉRAN 2 2 00:33:16 05:22 11.18
6 1531 JEAN WEERTS VETERAN 1 2 00:35:46 05:46 10.40
7 1548 FREDERIC PREVOT VETERAN 1 3 00:37:09 06:00 10.01
8 1503 LUDOVIC DASSY SENIOR H 3 00:37:15 06:00 9.99
9 1543 GIOVANNI POLLINA VÉTÉRAN 2 3 00:37:15 06:00 9.99
10 1510 RICHARD MATHOT VETERAN 3 1 00:37:18 06:01 9.97
11 1572 VINCENT MEUNIER SENIOR H 4 00:37:25 06:02 9.94
12 1529 CAROLINE MERTENS SENIOR D 1 00:37:26 06:02 9.94
13 1511 XUAN-MAI TRAN AINÉE 1 1 00:37:31 06:03 9.92
14 1561 JEAN-PIERRE ORBAN VÉTÉRAN 2 4 00:38:45 06:15 9.60
15 1542 FABRIS BELOTTE VETERAN 1 4 00:39:04 06:18 9.52
16 1028 THIERRY D'ANS SENIOR H 5 00:39:19 06:20 9.46
17 1558 FABRICE TERMOL VETERAN 1 5 00:39:26 06:22 9.43
18 1549 OLIVIER DAICHE VETERAN 1 6 00:39:28 06:22 9.43
19 1560 EDOUARD VANDERLINDEN SENIOR H 6 00:39:36 06:23 9.39
20 1568 NATHALIE JAA AINÉE 1 2 00:39:44 06:25 9.36
21 1567 PASQUALE BOVE VÉTÉRAN 2 5 00:39:45 06:25 9.36
22 1523 MICHEL JEUKENS VETERAN 1 7 00:39:48 06:25 9.35
23 1573 MAXENCE BERTRAND ESPOIR H 1 00:39:58 06:27 9.31
24 1562 DIEGO RIHON ESPOIR H 2 00:39:59 06:27 9.30
25 1579 THIBAULT DENIS ESPOIR H 3 00:40:00 06:27 9.30
26 1552 BRICE DUCHENE SENIOR H 7 00:40:43 06:34 9.14
27 1526 ELISA PERFETTO AINÉE 3 1 00:40:48 06:35 9.12
28 1524 FABIAN PANARIELLO SENIOR H 8 00:40:50 06:35 9.11
29 1553 SYLVIE GOVAERTS AINÉE 2 1 00:40:51 06:35 9.11
30 1515 NICOLAS BODART SENIOR H 9 00:40:54 06:36 9.10
31 1577 VANILLE VAN HAM SENIOR D 2 00:41:49 06:45 8.90
32 1582 MAUD NOEL SENIOR D 3 00:41:55 06:46 8.87
33 1564 CHARLES COLLEYE SENIOR H 10 00:42:07 06:48 8.83
34 1566 SEBASTIEN MARIA SENIOR H 11 00:42:09 06:48 8.83
35 1513 NATHALIE STEIMES AINÉE 1 3 00:42:18 06:49 8.79
36 1514 CEDRIC DEMOITIE SENIOR H 12 00:42:19 06:50 8.79
37 1569 JULIETTE OOSTVEEN SENIOR D 4 00:42:51 06:55 8.68
38 1551 ARNAUD DE BENEDICTIS SENIOR H 13 00:43:20 06:59 8.58
39 1557 VERONIQUE BERGHMANS SENIOR D 5 00:43:46 07:04 8.50
40 1575 LYSIS BEREIL SENIOR D 6 00:44:06 07:07 8.44
41 1574 MALLORY BERTRAND SENIOR D 7 00:44:54 07:15 8.29
42 1541 LAURENCE DALLA LONGA VETERAN 1 8 00:45:12 07:17 8.23
43 1546 VIRGINIE ARETINO AINÉE 1 4 00:45:17 07:18 8.21
44 1591 JANE BEYAERT SENIOR D 8 00:45:27 07:20 8.18
45 1570 ISALINE VAN DEN ABEELE SENIOR D 9 00:45:47 07:23 8.13
46 1576 LORRAINE DENIS SENIOR D 10 00:45:48 07:23 8.12
47 1550 CHRISTEL ROMPEN AINÉE 1 5 00:45:51 07:24 8.11
48 1556 MARIE-LORRAINE CORNET SENIOR D 11 00:45:52 07:24 8.11
49 1533 PASCAL BOLLEN VÉTÉRAN 2 6 00:45:56 07:25 8.10
50 1559 ARIANE CARIS AINÉE 1 6 00:46:21 07:29 8.03
51 1565 VICTORIA ANZALONE SENIOR D 12 00:47:06 07:36 7.90
52 1563 MELISSA MASCIARELLI SENIOR D 13 00:47:06 07:36 7.90
53 1571 SYLVIE ROYEN AINÉE 1 7 00:48:31 07:50 7.67
54 207 DENIS BOISSY VETERAN 1 9 00:49:19 07:57 7.54
55 1545 LAURENCE CHERPION VETERAN 1 10 00:49:41 08:01 7.49
56 86 LAETITIA SEVRIN SENIOR D 14 00:51:25 08:18 7.24
57 64 MARIE-JOSEE LOMBARDO AINÉE 1 8 00:51:25 08:18 7.24
58 138 MARIE-CLAUDE CHAGNON AINÉE 2 2 00:51:27 08:18 7.23
59 1693 JULIE BECK SENIOR D 15 00:51:27 08:18 7.23